This is the latest recevied weather packets stored in our database for station/object WD4IXD-WX. If no packets are shown the sender has not sent any weather packets the latest 10 day(s).
| Time | Temp. | Humidity | Pressure | Rain* | Wind** | Luminosity | Snow |
|---|---|---|---|---|---|---|---|
| 1777308004 | 2.78° C | 54% | 1014.8 hPa | 0 mm | - | 327 W/m² | - |
| 1777307704 | 2.78° C | 53% | 1014.8 hPa | 0 mm | - | 290 W/m² | - |
| 1777307404 | 2.22° C | 54% | 1014.7 hPa | 0 mm | - | 359 W/m² | - |
| 1777307104 | 2.78° C | 53% | 1014.7 hPa | 0 mm | - | 257 W/m² | - |
| 1777306803 | 2.78° C | 54% | 1014.7 hPa | 0 mm | - | 285 W/m² | - |
| 1777306504 | 2.22° C | 52% | 1014.7 hPa | 0 mm | - | 399 W/m² | - |
| 1777306204 | 2.22° C | 54% | 1014.6 hPa | 0 mm | - | 264 W/m² | - |
| 1777305904 | 2.22° C | 53% | 1014.6 hPa | 0 mm | - | 221 W/m² | - |
| 1777305604 | 2.78° C | 51% | 1014.6 hPa | 0 mm | - | 163 W/m² | - |
| 1777305304 | 2.78° C | 52% | 1014.5 hPa | 0 mm | - | 156 W/m² | - |
| 1777305004 | 2.22° C | 52% | 1014.5 hPa | 0 mm | - | 246 W/m² | - |
| 1777304703 | 2.22° C | 53% | 1014.4 hPa | 0 mm | - | 297 W/m² | - |
| 1777304404 | 2.22° C | 55% | 1014.4 hPa | 0 mm | - | 329 W/m² | - |
| 1777304104 | 1.67° C | 55% | 1014.3 hPa | 0 mm | - | 371 W/m² | - |
| 1777303804 | 1.67° C | 55% | 1014.3 hPa | 0 mm | - | 206 W/m² | - |
| 1777303504 | 1.67° C | 55% | 1014.3 hPa | 0 mm | - | 244 W/m² | - |
| 1777303204 | 1.67° C | 55% | 1014.2 hPa | 0 mm | - | 156 W/m² | - |
| 1777302904 | 1.11° C | 57% | 1014.2 hPa | 0 mm | - | 118 W/m² | - |
| 1777302604 | 1.11° C | 57% | 1014.2 hPa | 0 mm | - | 91 W/m² | - |
| 1777302304 | 1.67° C | 57% | 1014.2 hPa | 0 mm | - | 77 W/m² | - |
| 1777302004 | 1.11° C | 58% | 1014.1 hPa | 0 mm | - | 418 W/m² | - |
| 1777301703 | 1.11° C | 59% | 1014.2 hPa | 0 mm | - | 90 W/m² | - |
| 1777301403 | 1.11° C | 60% | 1014.1 hPa | 0 mm | - | 429 W/m² | - |
| 1777301104 | 1.11° C | 60% | 1014.1 hPa | 0 mm | - | 485 W/m² | - |
| 1777300804 | 1.11° C | 62% | 1014 hPa | 0 mm | - | 146 W/m² | - |
* Rain latest hour (hover to see other rain measurements)
** Current wind speed in m/s (hover to see current wind gust speed)